Location: Sö?üt
(36.6500°N, 29.5500°E)
Time: 05:25:12
(UTC+00:00)

Daily predictions for brighter satellites

Satellite Brightness Start Highest point End
(mag) Time Altitude Azimuth Time Altitude Azimuth Time Altitude Azimuth
IDEFIX/ARIANE 42P 3.9 00:13:44 10° N 00:16:41 31° NNW 00:16:41 31° NNW
ISS -0.4 00:23:17 11° ENE 00:23:17 11° ENE 00:23:28 10° ENE
Envisat 3.7 00:16:58 10° NNE 00:21:15 49° ENE 00:21:15 49° ENE
Iridium 4 Rocket 4.3 00:23:28 44° NE 00:23:28 44° NE 00:27:14 10° NNE
H-2A R/B 4.4 00:31:28 24° NE 00:31:28 24° NE 00:33:42 10° NNE
Cosmos 1763 Rocket 4.0 00:33:22 52° NNW 00:33:22 52° NNW 00:37:30 10° NNE
ADEOS II 3.0 00:29:55 10° NNE 00:34:49 40° E 00:35:39 37° ESE
ADEOS Rocket 3.6 00:33:11 10° N 00:40:44 62° WNW 00:41:53 57° WSW
ALOS 2.7 00:37:32 10° NNE 00:41:29 56° ENE 00:41:29 56° ENE
CZ-2D R/B 2.2 00:37:44 10° NNE 00:42:59 68° ESE 00:43:17 67° SE
USA 281 3.7 00:51:27 42° WNW 00:51:27 42° WNW 00:56:25 10° NW
DELTA 2 R/B (1) 4.3 00:52:27 40° SE 00:52:27 40° SE 00:57:22 10° E
Cosmos 1354 Rocket 4.0 00:51:16 10° NNW 00:56:33 79° ENE 00:58:08 46° SSE
Cosmos 2360 Rocket 2.2 00:51:47 10° NNW 00:57:29 80° ENE 01:01:44 18° SSE
Cosmos 1503 Rocket 4.3 00:52:44 10° NNW 00:56:51 52° NW 00:56:51 52° NW
Cosmos 2333 Rocket 2.7 00:52:53 10° NNW 00:57:05 45° WNW 00:57:05 45° WNW
ATLAS 5 CENTAUR R/B 3.2 00:57:43 45° SSE 00:59:07 60° ESE 01:12:23 10° NE
Cosmos 540 Rocket 4.2 01:01:37 39° NW 01:01:37 39° NW 01:05:52 10° N
Cosmos 468 Rocket 3.9 01:06:35 66° W 01:06:54 67° WNW 01:12:11 10° NNE
Resurs 1-4 Rocket 2.1 01:06:38 10° N 01:11:49 57° WNW 01:12:17 55° W
Cosmos 2278 4.1 01:06:43 10° NW 01:11:11 43° WNW 01:11:11 43° WNW
H-2A R/B 3.9 01:09:13 10° NE 01:12:29 24° E 01:15:00 14° SE
Cosmos 1833 4.5 01:12:00 46° W 01:12:36 48° WNW 01:18:07 10° N
Cosmos 2322 Rocket 2.0 01:07:08 10° NNW 01:12:44 69° WSW 01:15:03 36° S
CRYOSAT 2 4.5 01:18:22 24° SSE 01:21:20 73° E 01:26:13 10° N
Cosmos 1766 Rocket 3.4 01:19:11 10° N 01:23:32 88° WSW 01:24:44 47° S
H-2A R/B 2.1 01:21:26 10° N 01:26:32 62° WNW 01:27:58 44° SW
Cosmos 2219 Rocket 2.2 01:21:07 10° NNW 01:26:47 85° ENE 01:32:26 10° SSE
SL-16 R/B 3.8 01:22:52 10° NW 01:24:53 19° WNW 01:24:53 19° WNW
Meteor 1-11 Rocket 4.1 01:22:40 10° NNW 01:28:12 44° W 01:29:12 41° WSW
USA 267 4.3 01:24:45 10° NNE 01:30:30 34° NNW 01:34:01 20° W
SL-14 R/B 4.2 01:28:27 21° SSE 01:30:42 45° E 01:34:25 10° NNE
SL-4 R/B 2.5 01:31:44 10° NW 01:35:32 54° NE 01:39:10 10° ESE
ARGOS 3.3 01:31:15 10° NNE 01:36:38 71° ESE 01:40:54 16° S
METEOR-M 4.1 01:34:07 10° N 01:39:25 70° WNW 01:42:08 29° SSW
Gbstr 26 Del rocket 3.5 01:38:28 10° NW 01:42:06 49° NE 01:45:51 10° ESE
Cosmos 372 Rocket 3.8 01:47:57 10° NNW 01:53:06 73° WSW 01:58:10 10° S
Meteor 2-4 Rocket 4.2 01:52:16 28° WSW 01:54:07 36° WNW 01:59:02 10° N
Cosmos 1655 Rocket 4.4 01:48:57 10° NNW 01:54:40 40° W 01:58:40 18° SSW
ISS -2.1 01:56:14 21° WNW 01:57:15 24° NNW 02:00:05 10° NNE
NOSS 3-4 (A) 3.9 01:51:41 10° NNW 01:58:51 84° WSW 02:07:12 10° SSE
NOSS 3-4 (C) 3.9 01:52:13 10° NNW 01:59:25 85° WSW 02:07:46 10° SSE
Cosmos 1244 Rocket 4.4 01:53:32 10° NNW 01:59:42 66° W 02:05:46 10° S
Cosmos 1066 Rocket 4.4 01:56:41 23° SW 01:59:42 47° WNW 02:04:52 10° N
USA 234 3.4 01:57:22 10° SE 02:03:53 81° NE 02:10:27 10° NW
Cosmos 1461 4.1 02:03:16 19° WNW 02:04:11 21° NW 02:07:05 10° N
Aureole 1 Rocket 3.8 01:59:54 10° NW 02:04:16 41° WSW 02:09:38 10° S
H-2A R/B 4.4 02:06:25 11° WNW 02:06:25 11° WNW 02:06:45 10° WNW
Cosmos 2084 Rocket 3.8 02:04:24 10° NW 02:08:22 40° WSW 02:12:20 10° S
Cosmos 1151 Rocket 2.9 02:04:30 10° S 02:08:41 88° WNW 02:12:55 10° N
AQUA 4.0 02:05:02 10° N 02:09:33 51° WNW 02:13:09 16° SW
Nadezhda 2 Rocket 4.4 02:03:42 10° NNW 02:09:43 62° W 02:15:42 10° S
S3M 4.2 02:05:24 10° S 02:11:45 79° E 02:18:04 10° N
Cosmos 2297 Rocket 2.5 02:06:34 10° SSW 02:12:10 70° ESE 02:17:47 10° NNE
Cosmos 1386 Rocket 4.4 02:07:48 10° N 02:13:58 83° W 02:20:13 10° S
ADEOS II 3.4 02:10:03 10° NNW 02:14:03 23° WNW 02:16:28 17° WSW
SL-16 R/B 2.5 02:10:06 10° S 02:16:20 76° WSW 02:22:38 10° NNW
Cosmos 1500 Rocket 3.9 02:12:44 10° N 02:17:08 71° E 02:21:32 10° SSE
ALOS 4.2 02:16:41 10° NW 02:18:23 12° WNW 02:19:31 11° W
Cosmos 841 Rocket 4.5 02:18:30 17° WSW 02:21:27 28° WNW 02:25:54 10° N
CZ-2D R/B 3.9 02:19:39 10° NNW 02:22:21 14° WNW 02:24:32 11° W
EXPRESS MD2 3.6 02:23:25 13° SSW 02:25:20 36° SE 02:28:30 10° ENE
COSMOS 2428 2.8 02:20:06 10° NNW 02:25:50 82° ENE 02:31:31 10° SSE
Sich 1 3.4 02:25:29 10° NNW 02:29:19 38° W 02:33:09 10° SSW
Okean 3 Rocket 4.0 02:25:22 10° NNW 02:29:34 42° W 02:33:47 10° SSW
Cosmos 1758 3.1 02:29:29 10° NNW 02:33:02 52° W 02:36:32 10° S
Cosmos 1898 Rocket 3.9 02:29:15 10° NW 02:34:02 40° WSW 02:38:48 10° S
Cosmos 1743 Rocket 3.8 02:33:45 10° N 02:38:09 76° E 02:42:28 10° S
DELTA 2 R/B (1) 3.6 02:33:08 12° WSW 02:38:23 81° NNW 02:43:57 10° ENE
Cosmos 158 Rocket 4.0 02:33:16 10° SSW 02:38:29 89° W 02:43:51 10° NNE
Cosmos 1937 Rocket 3.6 02:33:40 10° NNW 02:38:40 51° WSW 02:43:35 10° S
Cosmos 1805 Rocket 3.6 02:34:23 10° NNW 02:38:41 59° W 02:42:57 10° S
Cosmos 2360 Rocket 3.9 02:38:55 10° WNW 02:40:38 11° W 02:42:21 10° WSW
H-2A R/B 3.3 02:44:34 10° NNW 02:47:36 21° WNW 02:50:36 10° WSW
Meteor 2-10 Rocket 4.5 02:43:23 10° NW 02:47:37 26° W 02:51:59 10° SW
